TimeEST,TemperatureF,Dew PointF,Humidity,Sea Level PressureIn,VisibilityMPH,Wind Direction,Wind SpeedMPH,Gust SpeedMPH,PrecipitationIn,Events,Conditions,WindDirDegrees,DateUTC
12:03 AM,37.4,32.0,81,29.90,3.0,NE,4.6,-,N/A,,Haze,50,2013-12-20 05:03:00
12:17 AM,37.4,33.8,87,29.90,2.0,NE,5.8,-,N/A,,Haze,40,2013-12-20 05:17:00
12:20 AM,37.4,33.8,87,29.90,1.8,NE,6.9,-,N/A,,Overcast,40,2013-12-20 05:20:00
12:40 AM,37.4,33.8,87,29.89,0.8,ENE,4.6,-,0.01,,Overcast,60,2013-12-20 05:40:00
12:53 AM,37.0,33.1,86,29.89,0.5,ENE,4.6,-,0.01,Fog,Fog,60,2013-12-20 05:53:00
1:08 AM,37.4,33.8,87,29.88,0.5,ENE,4.6,-,N/A,Fog,Fog,60,2013-12-20 06:08:00
1:53 AM,37.0,33.1,86,29.86,0.5,ENE,4.6,-,0.01,Fog,Fog,60,2013-12-20 06:53:00
2:53 AM,37.0,33.1,86,29.86,1.0,East,3.5,-,0.00,,Overcast,80,2013-12-20 07:53:00
3:32 AM,37.4,33.8,87,29.85,0.8,Calm,Calm,-,0.00,,Overcast,0,2013-12-20 08:32:00
3:48 AM,37.4,33.8,87,29.84,0.5,Calm,Calm,-,0.01,Fog-Rain,Light Rain,0,2013-12-20 08:48:00
3:53 AM,37.0,33.1,86,29.86,0.5,Calm,Calm,-,0.01,Fog-Rain,Light Rain,0,2013-12-20 08:53:00
4:15 AM,37.4,33.8,87,29.83,0.2,Calm,Calm,-,0.00,Fog,Fog,0,2013-12-20 09:15:00
4:32 AM,37.4,33.8,87,29.82,0.5,Calm,Calm,-,0.00,Fog,Fog,0,2013-12-20 09:32:00
4:53 AM,37.0,34.0,89,29.82,0.2,Calm,Calm,-,0.00,Fog,Fog,0,2013-12-20 09:53:00
5:34 AM,37.4,33.8,87,29.80,0.5,Calm,Calm,-,N/A,Fog,Fog,0,2013-12-20 10:34:00
5:53 AM,37.0,33.1,86,29.81,0.2,NE,3.5,-,0.01,Fog-Rain,Light Rain,40,2013-12-20 10:53:00
6:08 AM,37.4,33.8,87,29.79,0.5,NNE,3.5,-,0.00,Fog-Rain,Light Rain,30,2013-12-20 11:08:00
6:22 AM,37.4,33.8,87,29.80,0.5,Calm,Calm,-,0.00,Fog-Rain,Light Rain,0,2013-12-20 11:22:00
6:37 AM,37.4,33.8,87,29.80,0.2,Calm,Calm,-,0.00,Fog-Rain,Light Rain,0,2013-12-20 11:37:00
6:48 AM,37.4,33.8,87,29.80,0.5,Calm,Calm,-,0.01,Fog-Rain,Light Rain,0,2013-12-20 11:48:00
6:53 AM,37.9,35.1,89,29.81,0.5,Calm,Calm,-,0.01,Fog-Rain,Light Rain,0,2013-12-20 11:53:00
7:53 AM,41.0,37.0,86,29.80,1.2,SW,5.8,-,0.03,Rain,Light Rain,220,2013-12-20 12:53:00
8:04 AM,41.0,37.4,87,29.79,0.8,SSW,6.9,-,0.00,Rain,Light Rain,210,2013-12-20 13:04:00
8:14 AM,41.0,37.4,87,29.79,1.0,SSW,6.9,-,0.00,Rain,Light Rain,210,2013-12-20 13:14:00
8:24 AM,42.8,37.4,81,29.79,0.8,SW,5.8,-,0.00,Rain,Light Rain,230,2013-12-20 13:24:00
8:53 AM,41.0,37.9,89,29.81,0.5,SW,6.9,-,0.01,Fog-Rain,Light Rain,220,2013-12-20 13:53:00
9:28 AM,41.0,37.4,87,29.80,0.2,SW,6.9,-,0.00,Fog,Fog,220,2013-12-20 14:28:00
9:53 AM,41.0,37.9,89,29.81,0.2,SW,6.9,-,0.00,Fog,Fog,220,2013-12-20 14:53:00
10:14 AM,42.8,37.4,81,29.81,0.5,SSW,8.1,-,0.00,Fog-Rain,Light Rain,210,2013-12-20 15:14:00
10:38 AM,42.8,37.4,81,29.82,1.0,SW,8.1,-,0.01,Rain,Light Rain,220,2013-12-20 15:38:00
10:53 AM,41.0,37.9,89,29.82,0.8,SSW,6.9,-,0.01,,Overcast,210,2013-12-20 15:53:00
11:46 AM,42.8,39.2,87,29.80,1.0,SW,8.1,-,0.00,,Overcast,220,2013-12-20 16:46:00
11:53 AM,42.1,37.9,85,29.81,1.2,SW,8.1,-,0.00,,Overcast,230,2013-12-20 16:53:00
12:02 PM,42.8,37.4,81,29.80,0.5,WSW,5.8,-,N/A,Fog,Fog,240,2013-12-20 17:02:00
12:11 PM,41.0,37.4,87,29.80,0.2,WSW,5.8,-,N/A,Fog,Fog,250,2013-12-20 17:11:00
12:53 PM,42.1,39.0,89,29.78,0.2,WSW,4.6,-,0.00,Fog-Rain,Light Rain,240,2013-12-20 17:53:00
1:53 PM,42.1,37.9,85,29.76,0.2,North,3.5,-,0.01,Fog,Fog,360,2013-12-20 18:53:00
2:53 PM,39.9,36.0,86,29.76,0.2,NNE,3.5,-,0.02,Fog-Rain,Light Rain,20,2013-12-20 19:53:00
3:53 PM,37.9,35.1,89,29.76,0.5,NE,8.1,-,0.01,Fog,Fog,40,2013-12-20 20:53:00
4:53 PM,37.9,34.0,86,29.76,0.5,NE,8.1,-,0.02,Fog,Fog,50,2013-12-20 21:53:00
5:53 PM,37.0,34.0,89,29.76,0.8,ENE,6.9,-,0.02,,Overcast,60,2013-12-20 22:53:00
5:56 PM,37.4,33.8,87,29.75,2.0,NE,5.8,-,0.00,,Overcast,50,2013-12-20 22:56:00
6:14 PM,37.4,33.8,87,29.75,1.5,NE,4.6,-,0.00,Rain,Light Rain,40,2013-12-20 23:14:00
6:53 PM,37.0,34.0,89,29.76,1.2,ENE,4.6,-,0.07,Rain,Rain,60,2013-12-20 23:53:00
7:07 PM,37.4,33.8,87,29.76,3.0,ENE,3.5,-,0.01,Rain,Light Rain,60,2013-12-21 00:07:00
7:15 PM,37.4,33.8,87,29.76,2.5,North,6.9,-,0.03,Rain,Rain,10,2013-12-21 00:15:00
7:25 PM,37.4,33.8,87,29.76,3.0,ENE,4.6,-,0.05,Rain,Rain,60,2013-12-21 00:25:00
7:35 PM,37.4,33.8,87,29.76,2.5,NNE,5.8,-,0.07,Rain,Light Rain,30,2013-12-21 00:35:00
7:43 PM,37.4,33.8,87,29.76,4.0,NNE,5.8,-,0.07,Rain,Light Rain,30,2013-12-21 00:43:00
7:53 PM,37.0,34.0,89,29.78,3.0,NNE,4.6,-,0.08,Rain,Light Rain,20,2013-12-21 00:53:00
8:01 PM,37.4,33.8,87,29.77,2.5,NE,4.6,-,0.00,,Overcast,40,2013-12-21 01:01:00
8:14 PM,37.4,33.8,87,29.76,2.0,NE,5.8,-,0.00,,Overcast,40,2013-12-21 01:14:00
8:27 PM,37.4,33.8,87,29.76,2.5,ENE,3.5,-,0.00,,Overcast,60,2013-12-21 01:27:00
8:53 PM,37.0,34.0,89,29.76,3.0,NE,3.5,-,0.00,Rain,Light Rain,40,2013-12-21 01:53:00
9:05 PM,37.4,33.8,87,29.75,2.5,NE,3.5,-,0.00,,Overcast,40,2013-12-21 02:05:00
9:46 PM,37.4,33.8,87,29.75,1.8,NE,4.6,-,0.01,Rain,Light Rain,40,2013-12-21 02:46:00
9:53 PM,37.0,33.1,86,29.76,1.5,NE,3.5,-,0.01,Rain,Light Rain,50,2013-12-21 02:53:00
10:53 PM,37.0,34.0,89,29.75,1.0,NNE,4.6,-,0.02,Rain,Light Rain,30,2013-12-21 03:53:00
11:02 PM,37.4,33.8,87,29.74,0.8,NE,3.5,-,0.02,Rain,Light Rain,50,2013-12-21 04:02:00
11:15 PM,37.4,33.8,87,29.73,1.0,ENE,4.6,-,0.02,,Overcast,60,2013-12-21 04:15:00
11:28 PM,37.4,33.8,87,29.73,0.8,ENE,3.5,-,0.02,Rain,Light Rain,60,2013-12-21 04:28:00
11:53 PM,37.0,34.0,89,29.73,0.8,North,3.5,-,0.03,Rain,Light Rain,10,2013-12-21 04:53:00